| time (UTC) | temp F | wind direction | speed MPH | gust MPH | rain 1hr in | rain 24hr in | rain mn in | humidity % | barometer mb |
| 20260905185017 | 96 | 203 | 2.0 | 5.0 | 0.00 | 0.00 | 0.00 | 31 | 1014.6 |
| 20260905184036 | 94 | 270 | 1.0 | 5.0 | 0.00 | 0.00 | 0.00 | 32 | 1014.8 |
| 20260905183016 | 94 | 248 | 2.0 | 6.0 | 0.00 | 0.00 | 0.00 | 34 | 1014.9 |
| 20260905182038 | 95 | 338 | 2.0 | 5.0 | 0.00 | 0.00 | 0.00 | 34 | 1015.1 |
| 20260905181018 | 96 | 0.0 | 0.0 | 0.00 | 0.00 | 0.00 | 35 | 1015.4 | |
| 20260905180017 | 94 | 338 | 1.0 | 4.0 | 0.00 | 0.00 | 0.00 | 36 | 1015.4 |
| 20260905175016 | 92 | 293 | 1.0 | 4.0 | 0.00 | 0.00 | 0.00 | 38 | 1015.4 |
| 20260905174017 | 93 | 0.0 | 4.0 | 0.00 | 0.00 | 0.00 | 37 | 1015.5 | |
| 20260905173017 | 92 | 0.0 | 1.0 | 0.00 | 0.00 | 0.00 | 38 | 1015.4 | |
| 20260905172035 | 91 | 248 | 2.0 | 5.0 | 0.00 | 0.00 | 0.00 | 38 | 1015.5 |
| 20260905171017 | 91 | 0.0 | 1.0 | 0.00 | 0.00 | 0.00 | 39 | 1015.5 | |
| 20260905170016 | 90 | 248 | 3.0 | 5.0 | 0.00 | 0.00 | 0.00 | 40 | 1015.5 |
| 20260905165018 | 92 | 203 | 1.0 | 4.0 | 0.00 | 0.00 | 0.00 | 39 | 1015.6 |
| 20260905164016 | 91 | 248 | 1.0 | 3.0 | 0.00 | 0.00 | 0.00 | 41 | 1015.5 |
| 20260905163017 | 91 | 225 | 1.0 | 5.0 | 0.00 | 0.00 | 0.00 | 40 | 1015.5 |
| 20260905162016 | 90 | 225 | 1.0 | 5.0 | 0.00 | 0.00 | 0.00 | 41 | 1015.4 |
| 20260905161017 | 89 | 158 | 3.0 | 6.0 | 0.00 | 0.00 | 0.00 | 42 | 1015.4 |
| 20260905160036 | 89 | 180 | 2.0 | 4.0 | 0.00 | 0.00 | 0.00 | 44 | 1015.4 |
| 20260905155035 | 88 | 135 | 2.0 | 5.0 | 0.00 | 0.00 | 0.00 | 44 | 1015.4 |
| 20260905154015 | 87 | 135 | 2.0 | 4.0 | 0.00 | 0.00 | 0.00 | 45 | 1015.3 |
| 20260905153036 | 87 | 180 | 2.0 | 5.0 | 0.00 | 0.00 | 0.00 | 47 | 1015.2 |
| 20260905152018 | 86 | 135 | 2.0 | 5.0 | 0.00 | 0.00 | 0.00 | 48 | 1015.2 |
| 20260905151017 | 86 | 158 | 3.0 | 5.0 | 0.00 | 0.00 | 0.00 | 49 | 1015.2 |
| 20260905150016 | 85 | 135 | 1.0 | 4.0 | 0.00 | 0.00 | 0.00 | 49 | 1015.0 |
| 20260905145036 | 85 | 158 | 2.0 | 5.0 | 0.00 | 0.00 | 0.00 | 49 | 1015.0 |
| 20260905144021 | 84 | 135 | 2.0 | 5.0 | 0.00 | 0.00 | 0.00 | 50 | 1015.0 |
| 20260905143019 | 83 | 135 | 2.0 | 4.0 | 0.00 | 0.00 | 0.00 | 51 | 1014.8 |
| 20260905142036 | 82 | 135 | 1.0 | 3.0 | 0.00 | 0.00 | 0.00 | 51 | 1014.6 |
| 20260905141018 | 82 | 135 | 1.0 | 2.0 | 0.00 | 0.00 | 0.00 | 54 | 1014.7 |
| 20260905140016 | 80 | 113 | 2.0 | 3.0 | 0.00 | 0.00 | 0.00 | 56 | 1014.4 |
| 20260905135037 | 79 | 113 | 2.0 | 3.0 | 0.00 | 0.00 | 0.00 | 58 | 1014.3 |
| 20260905134015 | 79 | 113 | 2.0 | 3.0 | 0.00 | 0.00 | 0.00 | 58 | 1014.2 |
| 20260905133036 | 78 | 113 | 2.0 | 3.0 | 0.00 | 0.00 | 0.00 | 58 | 1014.0 |
| 20260905132015 | 78 | 113 | 2.0 | 4.0 | 0.00 | 0.00 | 0.00 | 59 | 1013.8 |
| 20260905131015 | 77 | 113 | 3.0 | 4.0 | 0.00 | 0.00 | 0.00 | 60 | 1013.7 |
| 20260905130018 | 77 | 113 | 3.0 | 4.0 | 0.00 | 0.00 | 0.00 | 60 | 1013.6 |
| 20260905125015 | 77 | 90 | 2.0 | 3.0 | 0.00 | 0.00 | 0.00 | 62 | 1013.6 |
| 20260905124035 | 77 | 113 | 2.0 | 2.0 | 0.00 | 0.00 | 0.00 | 63 | 1013.6 |
| 20260905123017 | 77 | 113 | 1.0 | 3.0 | 0.00 | 0.00 | 0.00 | 62 | 1013.4 |
| 20260905122015 | 77 | 113 | 3.0 | 4.0 | 0.00 | 0.00 | 0.00 | 61 | 1013.3 |
| 20260905121018 | 78 | 113 | 2.0 | 3.0 | 0.00 | 0.00 | 0.00 | 60 | 1013.4 |
| 20260905120018 | 78 | 113 | 2.0 | 3.0 | 0.00 | 0.00 | 0.00 | 60 | 1013.5 |
| 20260905115015 | 78 | 0.0 | 0.0 | 0.00 | 0.00 | 0.00 | 60 | 1013.5 | |
| 20260905114035 | 78 | 0.0 | 0.0 | 0.00 | 0.00 | 0.00 | 59 | 1013.3 | |
| 20260905113020 | 78 | 0.0 | 1.0 | 0.00 | 0.00 | 0.00 | 59 | 1013.4 | |
| 20260905112015 | 78 | 66 | 0.0 | 0.0 | 0.00 | 0.00 | 0.00 | 59 | 1013.4 |
| 20260905111017 | 79 | 90 | 1.0 | 2.0 | 0.00 | 0.00 | 0.00 | 57 | 1013.4 |
| 20260905110017 | 79 | 90 | 1.0 | 3.0 | 0.00 | 0.00 | 0.00 | 56 | 1013.3 |
| 20260905105015 | 80 | 113 | 3.0 | 4.0 | 0.00 | 0.00 | 0.00 | 54 | 1013.4 |
| 20260905104019 | 80 | 113 | 3.0 | 5.0 | 0.00 | 0.00 | 0.00 | 54 | 1013.4 |
| 20260905103015 | 80 | 113 | 2.0 | 5.0 | 0.00 | 0.00 | 0.00 | 55 | 1013.3 |
| 20260905102015 | 80 | 113 | 3.0 | 5.0 | 0.00 | 0.00 | 0.00 | 55 | 1013.4 |
| 20260905101015 | 80 | 113 | 3.0 | 5.0 | 0.00 | 0.00 | 0.00 | 54 | 1013.4 |
| 20260905100035 | 80 | 135 | 2.0 | 6.0 | 0.00 | 0.00 | 0.00 | 55 | 1013.4 |
| 20260905095015 | 79 | 135 | 1.0 | 3.0 | 0.00 | 0.00 | 0.00 | 57 | 1013.1 |
| 20260905094024 | 79 | 0.0 | 0.0 | 0.00 | 0.00 | 0.00 | 58 | 1013.0 | |
| 20260905093019 | 79 | 0.0 | 0.0 | 0.00 | 0.00 | 0.00 | 58 | 1013.1 | |
| 20260905092039 | 80 | 0.0 | 0.0 | 0.00 | 0.00 | 0.00 | 57 | 1013.2 | |
| 20260905091018 | 80 | 90 | 1.0 | 2.0 | 0.00 | 0.00 | 0.00 | 57 | 1013.2 |
| 20260905090018 | 80 | 90 | 1.0 | 2.0 | 0.00 | 0.00 | 0.00 | 56 | 1013.1 |
| 20260905085017 | 80 | 90 | 1.0 | 3.0 | 0.00 | 0.00 | 0.00 | 55 | 1013.3 |
| 20260905084037 | 81 | 0.0 | 1.0 | 0.00 | 0.00 | 0.00 | 54 | 1013.3 | |
| 20260905083017 | 81 | 113 | 2.0 | 3.0 | 0.00 | 0.00 | 0.00 | 53 | 1013.3 |
| 20260905082017 | 81 | 113 | 1.0 | 4.0 | 0.00 | 0.00 | 0.00 | 53 | 1013.3 |
| 20260905081021 | 81 | 0.0 | 0.0 | 0.00 | 0.00 | 0.00 | 52 | 1013.4 | |
| 20260905080037 | 82 | 0.0 | 0.0 | 0.00 | 0.00 | 0.00 | 51 | 1013.4 | |
| 20260905075017 | 82 | 0.0 | 0.0 | 0.00 | 0.00 | 0.00 | 51 | 1013.5 | |
| 20260905074017 | 82 | 0.0 | 0.0 | 0.00 | 0.00 | 0.00 | 49 | 1013.4 | |
| 20260905073037 | 83 | 0.0 | 0.0 | 0.00 | 0.00 | 0.00 | 48 | 1013.4 | |
| 20260905072039 | 83 | 0.0 | 0.0 | 0.00 | 0.00 | 0.00 | 46 | 1013.3 | |
| 20260905071018 | 84 | 0.0 | 0.0 | 0.00 | 0.00 | 0.00 | 45 | 1013.3 | |
| 20260905070037 | 84 | 0.0 | 0.0 | 0.00 | 0.00 | 0.00 | 45 | 1013.3 | |
| 20260905065016 | 84 | 0.0 | 0.0 | 0.00 | 0.00 | 0.00 | 44 | 1013.3 | |
| 20260905064018 | 85 | 0.0 | 0.0 | 0.00 | 0.00 | 0.00 | 43 | 1013.3 | |
| 20260905063016 | 85 | 203 | 2.0 | 3.0 | 0.00 | 0.00 | 0.00 | 42 | 1013.2 |
| 20260905062019 | 86 | 158 | 2.0 | 3.0 | 0.00 | 0.00 | 0.00 | 42 | 1013.1 |
| 20260905061038 | 86 | 203 | 2.0 | 4.0 | 0.00 | 0.00 | 0.00 | 41 | 1013.1 |
| 20260905060017 | 86 | 203 | 3.0 | 5.0 | 0.00 | 0.00 | 0.00 | 41 | 1013.1 |
| 20260905055016 | 86 | 203 | 2.0 | 4.0 | 0.00 | 0.00 | 0.00 | 42 | 1012.9 |
| 20260905054016 | 86 | 0.0 | 1.0 | 0.00 | 0.00 | 0.00 | 42 | 1012.9 | |
| 20260905053017 | 86 | 0.0 | 0.0 | 0.00 | 0.00 | 0.00 | 42 | 1012.7 | |
| 20260905052018 | 87 | 0.0 | 1.0 | 0.00 | 0.00 | 0.00 | 41 | 1012.6 | |
| 20260905051018 | 87 | 0.0 | 1.0 | 0.00 | 0.00 | 0.00 | 41 | 1012.6 | |
| 20260905050038 | 87 | 0.0 | 1.0 | 0.00 | 0.00 | 0.00 | 41 | 1012.5 | |
| 20260905045018 | 87 | 0.0 | 0.0 | 0.00 | 0.00 | 0.00 | 42 | 1012.4 | |
| 20260905044016 | 87 | 0.0 | 0.0 | 0.00 | 0.00 | 0.00 | 41 | 1012.3 | |
| 20260905043017 | 88 | 0.0 | 0.0 | 0.00 | 0.00 | 0.00 | 41 | 1012.3 | |
| 20260905042016 | 88 | 113 | 1.0 | 2.0 | 0.00 | 0.00 | 0.00 | 41 | 1012.3 |
| 20260905041016 | 89 | 0.0 | 0.0 | 0.00 | 0.00 | 0.00 | 41 | 1012.3 | |
| 20260905040019 | 90 | 0.0 | 0.0 | 0.00 | 0.00 | 0.00 | 38 | 1012.3 | |
| 20260905035016 | 90 | 0.0 | 0.0 | 0.00 | 0.00 | 0.00 | 38 | 1012.3 | |
| 20260905034017 | 91 | 0.0 | 0.0 | 0.00 | 0.00 | 0.00 | 36 | 1012.1 | |
| 20260905033018 | 92 | 0.0 | 0.0 | 0.00 | 0.00 | 0.00 | 35 | 1012.0 | |
| 20260905032019 | 92 | 135 | 1.0 | 2.0 | 0.00 | 0.00 | 0.00 | 35 | 1011.9 |
| 20260905031016 | 92 | 0.0 | 1.0 | 0.00 | 0.00 | 0.00 | 35 | 1011.7 | |
| 20260905030023 | 92 | 0.0 | 0.0 | 0.00 | 0.00 | 0.00 | 35 | 1011.5 | |
| 20260905025018 | 92 | 0.0 | 1.0 | 0.00 | 0.00 | 0.00 | 36 | 1011.5 | |
| 20260905024017 | 92 | 0.0 | 0.0 | 0.00 | 0.00 | 0.00 | 35 | 1011.3 | |
| 20260905023019 | 92 | 0.0 | 0.0 | 0.00 | 0.00 | 0.00 | 33 | 1011.0 | |
| 20260905022019 | 92 | 0.0 | 0.0 | 0.00 | 0.00 | 0.00 | 35 | 1011.0 | |
| 20260905021016 | 93 | 0.0 | 1.0 | 0.00 | 0.00 | 0.00 | 33 | 1011.0 | |
| 20260905020016 | 93 | 0.0 | 0.0 | 0.00 | 0.00 | 0.00 | 31 | 1010.9 | |
| 20260905015017 | 94 | 0.0 | 0.0 | 0.00 | 0.00 | 0.00 | 31 | 1010.8 | |
| 20260905014016 | 94 | 0.0 | 0.0 | 0.00 | 0.00 | 0.00 | 30 | 1010.7 | |
| 20260905013016 | 95 | 0.0 | 0.0 | 0.00 | 0.00 | 0.00 | 29 | 1010.8 | |
| 20260905012037 | 95 | 0.0 | 1.0 | 0.00 | 0.00 | 0.00 | 29 | 1010.7 | |
| 20260905011016 | 95 | 0.0 | 0.0 | 0.00 | 0.00 | 0.00 | 29 | 1010.7 | |
| 20260905010019 | 96 | 0.0 | 0.0 | 0.00 | 0.00 | 0.00 | 28 | 1010.7 | |
| 20260905005016 | 98 | 0.0 | 1.0 | 0.00 | 0.00 | 0.00 | 27 | 1010.6 | |
| 20260905004038 | 99 | 158 | 1.0 | 4.0 | 0.00 | 0.00 | 0.00 | 26 | 1010.7 |
| 20260905003017 | 98 | 0.0 | 0.0 | 0.00 | 0.00 | 0.00 | 27 | 1010.7 | |
| 20260905002017 | 97 | 0.0 | 5.0 | 0.00 | 0.00 | 0.00 | 27 | 1010.8 | |
| 20260905001017 | 97 | 248 | 3.0 | 8.0 | 0.00 | 0.00 | 0.00 | 27 | 1010.8 |
| 20260905000017 | 98 | 225 | 5.0 | 10.0 | 0.00 | 0.00 | 0.00 | 26 | 1010.8 |
| 20260904235036 | 98 | 248 | 3.0 | 6.0 | 0.00 | 0.00 | 0.00 | 26 | 1010.9 |
| 20260904234016 | 98 | 0.0 | 4.0 | 0.00 | 0.00 | 0.00 | 27 | 1011.0 | |
| 20260904233016 | 98 | 270 | 1.0 | 6.0 | 0.00 | 0.00 | 0.00 | 26 | 1011.0 |
| 20260904232020 | 98 | 248 | 4.0 | 11.0 | 0.00 | 0.00 | 0.00 | 26 | 1011.1 |
| 20260904231037 | 98 | 180 | 5.0 | 10.0 | 0.00 | 0.00 | 0.00 | 26 | 1011.2 |
| 20260904230018 | 98 | 203 | 7.0 | 13.0 | 0.00 | 0.00 | 0.00 | 26 | 1011.2 |
| 20260904225037 | 98 | 248 | 7.0 | 13.0 | 0.00 | 0.00 | 0.00 | 26 | 1011.3 |
| 20260904224016 | 98 | 248 | 7.0 | 13.0 | 0.00 | 0.00 | 0.00 | 26 | 1011.4 |
| 20260904223018 | 98 | 248 | 4.0 | 9.0 | 0.00 | 0.00 | 0.00 | 25 | 1011.4 |
| 20260904222016 | 98 | 135 | 4.0 | 8.0 | 0.00 | 0.00 | 0.00 | 27 | 1011.5 |
| 20260904221017 | 98 | 270 | 4.0 | 10.0 | 0.00 | 0.00 | 0.00 | 27 | 1011.6 |
| 20260904220039 | 98 | 248 | 5.0 | 12.0 | 0.00 | 0.00 | 0.00 | 25 | 1011.7 |
| 20260904215017 | 98 | 0.0 | 0.0 | 0.00 | 0.00 | 0.00 | 33 | 1012.0 | |
| 20260904214016 | 97 | 68 | 4.0 | 7.0 | 0.00 | 0.00 | 0.00 | 33 | 1011.9 |
| 20260904213017 | 96 | 135 | 3.0 | 7.0 | 0.00 | 0.00 | 0.00 | 34 | 1012.1 |
| 20260904212016 | 96 | 113 | 1.0 | 5.0 | 0.00 | 0.00 | 0.00 | 35 | 1012.2 |
| 20260904211019 | 96 | 338 | 1.0 | 7.0 | 0.00 | 0.00 | 0.00 | 35 | 1012.3 |
| 20260904210036 | 97 | 270 | 2.0 | 4.0 | 0.00 | 0.00 | 0.00 | 35 | 1012.6 |
| 20260904205016 | 98 | 203 | 3.0 | 12.0 | 0.00 | 0.00 | 0.00 | 34 | 1012.8 |
| 20260904204017 | 98 | 158 | 5.0 | 10.0 | 0.00 | 0.00 | 0.00 | 36 | 1012.9 |
| 20260904203018 | 96 | 0.0 | 1.0 | 0.00 | 0.00 | 0.00 | 37 | 1012.9 | |
| 20260904202016 | 95 | 248 | 3.0 | 7.0 | 0.00 | 0.00 | 0.00 | 38 | 1013.1 |
| 20260904201016 | 95 | 135 | 4.0 | 7.0 | 0.00 | 0.00 | 0.00 | 38 | 1013.2 |
| 20260904200016 | 94 | 135 | 2.0 | 6.0 | 0.00 | 0.00 | 0.00 | 40 | 1013.2 |
| 20260904195038 | 96 | 113 | 3.0 | 7.0 | 0.00 | 0.00 | 0.00 | 39 | 1013.4 |
| 20260904194036 | 96 | 158 | 3.0 | 10.0 | 0.00 | 0.00 | 0.00 | 40 | 1013.6 |
| 20260904193015 | 95 | 225 | 2.0 | 6.0 | 0.00 | 0.00 | 0.00 | 41 | 1013.7 |
| 20260904192016 | 95 | 225 | 4.0 | 7.0 | 0.00 | 0.00 | 0.00 | 40 | 1013.9 |
| 20260904191017 | 94 | 0.0 | 5.0 | 0.00 | 0.00 | 0.00 | 41 | 1013.9 | |
| 20260904190017 | 95 | 135 | 4.0 | 9.0 | 0.00 | 0.00 | 0.00 | 42 | 1014.1 |